Regional Weather Roundup
Issued by NWS Mobile, AL

Home | Current Version | Previous Version | Text Only | Print | Product List | Glossary On
Versions: 1 2 3 4 5 6 7 8 9 10 11 12 13 14 15 16 17 18 19 20 21 22 23 24 25 26 27 28 29 30 31 32 33 34 35 36 37 38 39 40 41 42
000
ASUS44 KMOB 281110
RWRMOB
REGIONAL WEATHER ROUNDUP
NATIONAL WEATHER SERVICE MOBILE AL
500 AM CST SUN DEC 28 2014

NOTE: "FAIR" INDICATES FEW OR NO CLOUDS BELOW 12,000 FEET WITH NO
      SIGNIFICANT WEATHER AND/OR OBSTRUCTIONS TO VISIBILITY.

  * THESE STATIONS ARE PART OF THE UNIVERSITY OF SOUTH ALABAMA
    MESONET AND ARE NOT UNDER NWS OR FAA QUALITY CONTROL.

ALZ061>064-281200-
COASTAL ALABAMA

CITY           SKY/WX    TMP DP  RH WIND       PRES   REMARKS
MOBILE REG APT CLOUDY    64  64 100 SW8       30.07R FOG
BROOKLEY FIELD CLOUDY    69  68  96 S3        30.08R
USA CAMPUS*    NOT AVBL
DOG RIVER*     NOT AVBL


CITY           SKY/WX    TMP DP  RH WIND       PRES   REMARKS
MOUNT VERNON*  NOT AVBL
SARALAND*      NOT AVBL
BAY MINETTE*   NOT AVBL
LOXLEY*        NOT AVBL
ROBERTSDALE*   NOT AVBL
FAIRHOPE*        N/A     68  68 100 S8        30.07R
ELBERTA*         N/A     70  68  94 S7        30.06R
FOLEY*         NOT AVBL
GRAND BAY*     NOT AVBL
DAUPHIN ISLND* NOT AVBL
BON SCOUR NWR* NOT AVBL
GULF SHORES    CLOUDY    68  67  99 S8        30.07R

$$

ALZ051>060-281200-
INTERIOR SOUTHWEST AND SOUTH CENTRAL ALABAMA

CITY           SKY/WX    TMP DP  RH WIND       PRES   REMARKS
GREENVILLE     NOT AVBL
EVERGREEN      LGT RAIN  58  56  93 CALM      30.07S
CASTLEBERRY*   NOT AVBL
ATMORE*        NOT AVBL
DIXIE*         NOT AVBL
ANDALUSIA/OPP  CLOUDY    63  57  81 S5        30.08R
ANDALUSIA*       N/A     59  59 100 SE7       30.07S
FLORALA APT    CLOUDY    64  61  90 S10       30.09S
FLORALA*       NOT AVBL

$$

FLZ001>006-281200-
WESTERN FLORIDA PANHANDLE

CITY           SKY/WX    TMP DP  RH WIND       PRES   REMARKS
PENSACOLA      CLOUDY    68  67  96 S9        30.07S FOG
NAS PENSACOLA  NOT AVBL
MILTON         CLOUDY    65  64  97 S8        30.07S
WHTNG S FIELD  CLOUDY    68  65  90 VRB5      30.08R


CITY           SKY/WX    TMP DP  RH WIND       PRES   REMARKS
WALNUT HILL*   NOT AVBL
JAY*           NOT AVBL
DUKE FIELD     CLOUDY    64  62  93 S9        30.08S
CRESTVIEW      CLOUDY    64  62  93 S6        30.09S
VALPARAISO     MOCLDY    63  61  94 SE9       30.09S
DESTIN         CLOUDY    65  63  93 SE7       30.09S

$$

MSZ076-079-281200-
INTERIOR SOUTHEAST MISSISSIPPI

CITY           SKY/WX    TMP DP  RH WIND       PRES   REMARKS
LEAKESVILLE*   NOT AVBL
AGRICOLA*      NOT AVBL

$$

MARINE OBSERVATIONS

STATION/POSITION TIME  TEMP    WIND        PRES    WAVE
                       AIR SEA DIR/SP/G            HT/PER
                 (UTC) (F)     (DEG/KT/KT) (MB)    (FT/S)
PASCAGOULA       1100   64     210/  3/  4 1017.7F
PETIT BOIS ISLND 1100   66     190/  8/  9 1018.1F
GRAND BAY        1000   62     210/  3     1019.0S
KATRINA CUT      1000   65     250/ 11     1019.3R
CEDAR POINT      1000   64     220/ 13     1018.6R
E DAUPHIN ISLAND 0956   66     160/ 10/ 11 1017.3F
USCG MOBILE BAY  1100   67 58  220/  2/  3 1016.8F
STATE DOCKS      1100   64 56              1017.5S
MEAHER PARK      1000   63     210/  8     1018.0S
WEEKS BAY        1000   70                   N/A
FORT MORGAN      1100   68     230/ 16/ 18 1017.8R
12 S ORANGE BCH  1100   71 68  180/ 10/ 12 1017.5R   3/ 6
PENSACOLA BAY    1100   68 59  180/  4/  8 1018.4S
64 S DAUPHIN ISL 1100   73 74  180/ 16/ 17 1018.0S   4/ 5

$$

SELECTED LOCATIONS ACROSS THE REGION

CITY           SKY/WX    TMP DP  RH WIND       PRES   REMARKS
NEW ORLEANS    FOG       67  66  97 S7        30.06S VSB 1/2
GULFPORT       FOG       67  66  97 W5        30.05S VSB 1/4
PASCAGOULA AP  FOG       65  65 100 S5        30.06S VSB 1/2
PASCAGOULA*    NOT AVBL
HATTIESBURG    CLOUDY    70  68  93 W3        30.06R
LAUREL         CLOUDY    66  64  94 SW5       30.06R
MERIDIAN       LGT RAIN  59  58  96 SW6       30.04R
JACKSON        LGT RAIN  51  50  96 NW8       30.09S
MONTGOMERY     LGT RAIN  56  54  93 CALM      30.08R FOG
TROY           CLOUDY    60  56  86 S7        30.08S
KINSTON*       NOT AVBL
GENEVA*        NOT AVBL
ASHFORD*         N/A     59  59 100 SE7       30.07S
DOTHAN         NOT AVBL
PANAMA CITY    MOCLDY    61  58  90 CALM      30.10R

$$




USA.gov is the U.S. government's official web portal to all federal, state and local government web resources and services.